FENGYUN 1C DEB

Satellite information

Favourite Embed

Satellite Type and Status

DEBRISIN ORBIT

Key statistics

Satellite FENGYUN 1C DEB at a glance.

Uptime

9499

Days in orbit

Revolutions

≈ 14.3

Per day

Orbit

SSO

Sun Synchronous Orbit

Inclination

98.7

Latest

Satellite identification and parameters

Extended collection of information and parameters for FENGYUN 1C DEB.

Object identification

Identified? True

Debris? True

Object name: FENGYUN 1C DEB

International designator: 1999-025AMP

Object number (NORAD): 30608

Object ID (CCSDS): 30608

Country: PEOPLES REPUBLIC OF CHINA (PRC)

Current information (Y/N): Y

RCS size: MEDIUM

Orbital parameters

Period: 100.891 minutes

Inclination: 98.7294 deg

SMA: 7178.941 km

Apoapsis: 811.904 km

Periapsis: 789.707 km

RAAN: 194.8401 deg

Eccentricy: 0.001546

Argument of periapsis: 91.3471 deg

Mean anomaly: 44.4988 deg

Mean motion: 14.27289923 rev/day

Mean motion (dot): 0.00002065 rev/day2

B* drag term: 0.00086106 1/REarth

Two-line elements (TLE)

Creation date: May 12, 2025, 2:31 a.m.

Reference frame: TEME

Reference center: EARTH

Epoch: May 11, 2025, 7:33 p.m. UTC

TLE line 0: 0 FENGYUN 1C DEB

TLE line 1: 1 30608U 99025AMP 25131.81475792 .00002065 00000-0 86106-3 0 9994

TLE line 2: 2 30608 98.7294 194.8401 0015460 91.3471 44.4988 14.27289923943725

Live tracking on map

Real-time ground track for satellite FENGYUN 1C DEB.

In-orbit conjunctions

A list of the most updated potential collisions computed for object FENGYUN 1C DEB.

Target Orbit TCA Probability of collision Miss distance Type
FENGYUN 1C DEB SSO 2025-04-27 10:03:51 0.0002498561 155.0 (m) DEBRIS
SL-18 DEB LEO 2024-11-28 06:17:01 0.0003146363 81.0 (m) DEBRIS
CZ-6A DEB LEO 2024-11-17 21:41:40 0.0004649282 166.0 (m) DEBRIS
BLOCK DM-SL R/B GTO 2024-10-29 04:46:16 0.0001306133 248.0 (m) ROCKET BODY

Associated space launch

Chinese polar orbiting meteorological satellite

FENGYUN 1C DEB was lifted into orbit during the mission ‘Long March 4B | Feng Yun 1C’, on board a Long March 4B space rocket.

The launch took place on May 10, 1999, 1:33 a.m. from Launch Complex 7.

For more information about the launch, click the button.

Launch to space Long March 4B | Feng Yun 1C
Long March 4B | Feng Yun 1C

Agency: N/A

Status: Launch Successful

Launch date: May 10, 1999, 1:33 a.m. UTC

Rocket: Long March 4B

Launch pad: Launch Complex 7

Location: Taiyuan Satellite Launch Center, People's Republic of China

...

Latest news about this satellite

There are no fresh news available about this satellite. Check back as we update our databases every day.


Newsletter sign-up

Weekly statistics, charts and insights to help you stay on top of the space industry.